When you browse on this site, cookies collect data to enhance your experience and personalize the content and advertising you see.
Visit our Privacy Policy to learn more. By continuing to use the site, you agree to this use of cookies and data.
  • In Latvia
  • List of Countries
  • For 7 days
  • Water Temperature
  • Weather Map
  • Weather Widgets
  • user-avatar
    Login

    Hourly Weather Wolucza

    Today, 14 October, Monday

    Time Temperature Precipitation Wind Pressure Humidity
    00:00 +14°C° 0 mm 4 mps 750 mmHg 75%
    01:00 +14°C° 0 mm 5 mps 750 mmHg 76%
    02:00 +14°C° 0 mm 5 mps 750 mmHg 76%
    03:00 +14°C° 0 mm 5 mps 750 mmHg 76%
    04:00 +14°C° 0 mm 5 mps 749 mmHg 76%
    05:00 +14°C° 0 mm 5 mps 750 mmHg 76%
    06:00 +14°C° 0 mm 5 mps 750 mmHg 75%
    07:00 +14°C° 0 mm 5 mps 750 mmHg 74%
    08:00 +16°C° 0 mm 5 mps 750 mmHg 68%
    09:00 +19°C° 0 mm 5 mps 750 mmHg 63%
    10:00 +20°C° 0 mm 4 mps 750 mmHg 57%
    11:00 +21°C° 0 mm 4 mps 750 mmHg 55%
    12:00 +22°C° 0 mm 4 mps 750 mmHg 53%
    13:00 +24°C° 0 mm 3 mps 750 mmHg 51%
    14:00 +24°C° 0 mm 3 mps 750 mmHg 54%
    15:00 +23°C° 0 mm 2 mps 750 mmHg 58%
    16:00 +22°C° 0 mm 1 mps 750 mmHg 61%
    17:00 +21°C° 0 mm 1 mps 750 mmHg 65%
    18:00 +18°C° 0 mm 0 mps 750 mmHg 69%
    19:00 +17°C° 0 mm 0 mps 750 mmHg 72%
    20:00 +16°C° 0 mm 0 mps 750 mmHg 74%
    21:00 +18°C° 0 mm 1 mps 750 mmHg 76%
    22:00 +18°C° 0 mm 1 mps 750 mmHg 77%
    23:00 +16°C° 0 mm 1 mps 750 mmHg 79%

    Tomorrow, 15 October, Tuesday

    Time Temperature Precipitation Wind Pressure Humidity
    00:00 +16°C° 0 mm 2 mps 750 mmHg 82%
    01:00 +15°C° 0 mm 2 mps 751 mmHg 84%
    02:00 +15°C° 0 mm 2 mps 750 mmHg 86%
    03:00 +13°C° 0 mm 3 mps 750 mmHg 88%
    04:00 +13°C° 0 mm 3 mps 749 mmHg 90%
    05:00 +13°C° 0 mm 3 mps 749 mmHg 87%
    06:00 +13°C° 0 mm 4 mps 749 mmHg 83%
    07:00 +13°C° 0 mm 5 mps 749 mmHg 80%
    08:00 +14°C° 0 mm 5 mps 748 mmHg 75%
    09:00 +15°C° 0 mm 5 mps 748 mmHg 69%
    10:00 +17°C° 0 mm 5 mps 748 mmHg 64%
    11:00 +19°C° 0 mm 5 mps 747 mmHg 61%
    12:00 +20°C° 0 mm 5 mps 747 mmHg 58%
    13:00 +21°C° 0 mm 5 mps 746 mmHg 54%
    14:00 +21°C° 0 mm 4 mps 746 mmHg 57%
    15:00 +20°C° 0 mm 4 mps 745 mmHg 59%
    16:00 +20°C° 0 mm 3 mps 745 mmHg 62%
    17:00 +19°C° 0 mm 3 mps 745 mmHg 65%
    18:00 +18°C° 0 mm 3 mps 745 mmHg 67%
    19:00 +17°C° 0 mm 4 mps 745 mmHg 70%
    20:00 +15°C° 0 mm 4 mps 745 mmHg 72%
    21:00 +16°C° 0 mm 3 mps 745 mmHg 73%
    22:00 +14°C° 0 mm 3 mps 745 mmHg 74%
    23:00 +14°C° 0 mm 3 mps 745 mmHg 75%

    Day after tomorrow, 16 October, Wednesday

    Time Temperature Precipitation Wind Pressure Humidity
    00:00 +14°C° 0 mm 3 mps 744 mmHg 76%
    01:00 +13°C° 0 mm 3 mps 744 mmHg 76%
    02:00 +14°C° 0 mm 4 mps 744 mmHg 74%
    03:00 +14°C° 0 mm 4 mps 744 mmHg 73%
    04:00 +14°C° 0 mm 5 mps 744 mmHg 71%
    05:00 +14°C° 0 mm 5 mps 744 mmHg 75%
    06:00 +14°C° 0 mm 5 mps 745 mmHg 79%
    07:00 +14°C° 0 mm 5 mps 745 mmHg 83%
    08:00 +15°C° 0 mm 5 mps 746 mmHg 77%
    09:00 +16°C° 0 mm 6 mps 746 mmHg 72%
    10:00 +17°C° 0 mm 6 mps 747 mmHg 67%
    11:00 +17°C° 0 mm 6 mps 747 mmHg 64%
    12:00 +17°C° 0 mm 6 mps 748 mmHg 61%
    13:00 +17°C° 0 mm 6 mps 748 mmHg 58%
    14:00 +17°C° 0 mm 6 mps 748 mmHg 60%
    15:00 +16°C° 0 mm 5 mps 748 mmHg 61%
    16:00 +15°C° 0 mm 5 mps 748 mmHg 63%
    17:00 +14°C° 0 mm 4 mps 748 mmHg 64%
    18:00 +13°C° 0 mm 4 mps 749 mmHg 66%
    19:00 +12°C° 0 mm 4 mps 749 mmHg 67%
    20:00 +12°C° 0 mm 4 mps 749 mmHg 69%
    21:00 +11°C° 0 mm 4 mps 750 mmHg 71%
    22:00 +11°C° 0 mm 4 mps 750 mmHg 73%
    23:00 +11°C° 0 mm 4 mps 750 mmHg 75%

    17 October, Thursday

    Time Temperature Precipitation Wind Pressure Humidity
    00:00 +10°C° 0 mm 4 mps 750 mmHg 77%
    01:00 +10°C° 0 mm 3 mps 750 mmHg 79%
    02:00 +10°C° 0 mm 3 mps 750 mmHg 79%
    03:00 +10°C° 0 mm 4 mps 750 mmHg 80%
    04:00 +8°C° 0 mm 4 mps 750 mmHg 80%
    05:00 +8°C° 0 mm 4 mps 750 mmHg 80%
    06:00 +8°C° 0 mm 4 mps 750 mmHg 79%
    07:00 +10°C° 0 mm 4 mps 750 mmHg 78%
    08:00 +11°C° 0 mm 4 mps 751 mmHg 71%
    09:00 +13°C° 0 mm 4 mps 751 mmHg 65%
    10:00 +15°C° 0 mm 4 mps 751 mmHg 58%
    11:00 +15°C° 0 mm 4 mps 751 mmHg 55%
    12:00 +17°C° 0 mm 4 mps 751 mmHg 53%
    13:00 +18°C° 0 mm 4 mps 751 mmHg 50%
    14:00 +18°C° 0 mm 3 mps 750 mmHg 53%
    15:00 +17°C° 0 mm 2 mps 750 mmHg 56%
    16:00 +16°C° 0 mm 2 mps 750 mmHg 59%
    17:00 +16°C° 0 mm 2 mps 750 mmHg 60%
    18:00 +15°C° 0 mm 2 mps 751 mmHg 62%
    19:00 +14°C° 0 mm 2 mps 751 mmHg 63%
    20:00 +14°C° 0 mm 2 mps 751 mmHg 63%
    21:00 +14°C° 0 mm 2 mps 751 mmHg 63%
    22:00 +14°C° 0 mm 2 mps 751 mmHg 64%
    23:00 +13°C° 0 mm 2 mps 751 mmHg 64%

    18 October, Friday

    Time Temperature Precipitation Wind Pressure Humidity
    00:00 +13°C° 0 mm 2 mps 751 mmHg 65%
    01:00 +12°C° 0 mm 1 mps 751 mmHg 65%
    02:00 +12°C° 0 mm 1 mps 751 mmHg 65%
    03:00 +12°C° 0 mm 1 mps 751 mmHg 66%
    04:00 +12°C° 0 mm 1 mps 752 mmHg 66%
    05:00 +12°C° 0 mm 1 mps 752 mmHg 66%
    06:00 +12°C° 0 mm 1 mps 752 mmHg 65%
    07:00 +13°C° 0 mm 1 mps 752 mmHg 65%
    08:00 +13°C° 0 mm 1 mps 752 mmHg 64%
    09:00 +14°C° 0 mm 1 mps 752 mmHg 63%
    10:00 +15°C° 0 mm 1 mps 752 mmHg 62%
    11:00 +15°C° 0 mm 1 mps 752 mmHg 60%
    12:00 +16°C° 0 mm 1 mps 752 mmHg 58%
    13:00 +16°C° 0 mm 0 mps 752 mmHg 56%
    14:00 +16°C° 0 mm 0 mps 752 mmHg 58%
    15:00 +15°C° 0 mm 0 mps 752 mmHg 60%
    16:00 +15°C° 0 mm 0 mps 752 mmHg 62%
    17:00 +15°C° 0 mm 1 mps 752 mmHg 64%
    18:00 +14°C° 0 mm 1 mps 752 mmHg 67%
    19:00 +13°C° 0 mm 1 mps 752 mmHg 70%
    20:00 +13°C° 0 mm 1 mps 752 mmHg 71%
    21:00 +13°C° 0 mm 1 mps 752 mmHg 73%
    22:00 +12°C° 0 mm 1 mps 752 mmHg 74%
    23:00 +12°C° 0 mm 1 mps 752 mmHg 76%

    19 October, Saturday

    Time Temperature Precipitation Wind Pressure Humidity
    00:00 +12°C° 0 mm 1 mps 752 mmHg 78%
    01:00 +12°C° 0 mm 2 mps 752 mmHg 80%
    02:00 +12°C° 0 mm 2 mps 752 mmHg 83%
    03:00 +12°C° 0 mm 2 mps 752 mmHg 86%
    04:00 +10°C° 0 mm 2 mps 752 mmHg 89%
    05:00 +12°C° 0 mm 2 mps 752 mmHg 89%
    06:00 +12°C° 0 mm 2 mps 752 mmHg 90%
    07:00 +12°C° 0 mm 2 mps 752 mmHg 91%
    08:00 +13°C° 0 mm 2 mps 751 mmHg 85%
    09:00 +14°C° 0 mm 3 mps 751 mmHg 80%
    10:00 +16°C° 0 mm 3 mps 751 mmHg 74%
    11:00 +17°C° 0 mm 3 mps 751 mmHg 71%
    12:00 +18°C° 0 mm 3 mps 750 mmHg 68%
    13:00 +19°C° 0 mm 4 mps 750 mmHg 65%
    14:00 +18°C° 0 mm 3 mps 750 mmHg 68%
    15:00 +18°C° 0 mm 3 mps 750 mmHg 71%
    16:00 +17°C° 0 mm 3 mps 749 mmHg 75%
    17:00 +16°C° 0 mm 3 mps 749 mmHg 78%
    18:00 +14°C° 0 mm 3 mps 749 mmHg 82%
    19:00 +13°C° 0 mm 3 mps 749 mmHg 86%
    20:00 +13°C° 0 mm 3 mps 749 mmHg 85%
    21:00 +13°C° 0 mm 3 mps 748 mmHg 85%
    22:00 +13°C° 0 mm 3 mps 748 mmHg 84%
    23:00 +13°C° 0 mm 3 mps 748 mmHg 86%
    Show more